Date String (YYYY-MM-DD hh:mm:ss) UTC,Instrument flags,absolute air pressure of the measurement (hPa),sample flow rate (lpm),inlet stack bypass flow (lpm),air temperature of the measurement (°C),ambient temperature measured by the external sensor (°C),aerosol sample conditioner tube jacket temperature (°C),OPC LED temperature (°C),internal box temperature (°C),relative humidity of the measurement (%),span deviation,mass concentration of particles derived from Lorenz-Mie calculation of OPC scattering (μg/m³),mass concentration of particles derived from Lorenz-Mie calculation of OPC scattering (μg/m³),mass concentration of particles derived from Lorenz-Mie calculation of OPC scattering (μg/m³)
DateTimeUTC,F1_M11,P_M11,Q1_M11,Q2_M11,T1_M11,T2_M11,T3_M11,T4_M11,T5_M11,U1_M11,ZSPAN_M11,X2_M11,X0_M11,X1_M11
2024-01-26 12:00:00,SystemResetWarning,0830.6,5.00,000.00,021.6,020.6,000.0,029.9,023.0,21.6,0001.6,0005.32,0008.20,0005.18
2024-01-26 12:01:00,SystemResetWarning,0830.6,5.00,000.00,021.6,020.6,000.0,029.9,023.0,21.7,0001.6,0005.35,0008.33,0005.19
2024-01-26 12:02:00,SystemResetWarning,0830.6,5.01,000.00,021.6,020.6,000.0,029.9,023.0,21.7,0001.7,0005.35,0008.29,0005.19
2024-01-26 12:03:00,SystemResetWarning,0830.6,5.01,000.00,021.6,020.6,000.0,029.9,023.0,21.8,0001.4,0005.35,0008.27,0005.19
2024-01-26 12:04:00,SystemResetWarning,0830.6,5.00,000.00,021.6,020.6,000.0,029.9,023.0,21.8,0001.6,0005.35,0008.26,0005.21
2024-01-26 12:05:00,SystemResetWarning,0830.6,5.00,000.00,021.6,020.5,000.0,029.9,022.9,21.8,0001.5,0005.37,0008.29,0005.24
2024-01-26 12:06:00,SystemResetWarning,0830.6,5.00,000.00,021.6,020.5,000.0,029.9,022.9,21.9,0001.5,0005.38,0008.30,0005.24
2024-01-26 12:07:00,SystemResetWarning,0830.6,5.00,000.00,021.6,020.5,000.0,029.9,022.9,21.8,0001.4,0005.40,0008.35,0005.26
2024-01-26 12:08:00,SystemResetWarning,0830.6,4.99,000.00,021.5,020.4,000.0,029.9,022.9,21.9,0001.1,0005.38,0008.32,0005.25
2024-01-26 12:09:00,SystemResetWarning,0830.6,4.99,000.00,021.5,020.4,000.0,029.9,022.9,21.9,0000.7,0005.33,0008.28,0005.20
2024-01-26 12:10:00,SystemResetWarning,0830.7,5.00,000.00,021.5,020.3,000.0,029.9,022.9,21.9,0000.4,0005.28,0007.94,0005.15
2024-01-26 12:11:00,SystemResetWarning,0830.7,4.99,000.00,021.5,020.3,000.0,029.9,022.9,21.9,0000.3,0005.23,0007.45,0005.12
2024-01-26 12:12:00,SystemResetWarning,0830.7,5.00,000.00,021.5,020.3,000.0,029.8,022.8,21.9,0000.5,0005.20,0007.32,0005.09
2024-01-26 12:13:00,SystemResetWarning,0830.7,5.02,000.00,021.5,020.3,000.0,029.8,022.8,22.0,0000.4,0005.17,0007.31,0005.04
2024-01-26 12:14:00,SystemResetWarning,0830.7,5.01,000.00,021.5,020.2,000.0,029.8,022.8,22.1,0000.0,0005.11,0007.57,0004.97
2024-01-26 12:15:00,SystemResetWarning,0830.7,5.00,000.00,021.5,020.2,000.0,029.8,022.8,22.1,0000.0,0005.06,0008.10,0004.90
2024-01-26 12:16:00,SystemResetWarning,0830.7,4.99,000.00,021.5,020.2,000.0,029.8,022.7,21.8,0000.0,0005.01,0008.04,0004.86
2024-01-26 12:17:00,SystemResetWarning,0830.7,4.99,000.00,021.4,020.2,000.0,029.8,022.7,21.7,0000.0,0004.96,0007.99,0004.81
2024-01-26 12:18:00,SystemResetWarning,0830.7,5.00,000.00,021.4,020.1,000.0,029.8,022.7,21.8,0000.0,0004.91,0007.94,0004.76
2024-01-26 12:19:00,SystemResetWarning,0830.7,5.01,000.00,021.4,020.1,000.0,029.8,022.7,21.8,0000.0,0004.89,0007.93,0004.72
2024-01-26 12:20:00,SystemResetWarning,0830.7,5.01,000.00,021.4,020.1,000.0,029.8,022.7,21.9,0000.0,0004.88,0007.94,0004.71
2024-01-26 12:21:00,SystemResetWarning,0830.7,5.01,000.00,021.4,020.1,000.0,029.8,022.7,21.7,0000.0,0004.89,0007.96,0004.72
2024-01-26 12:22:00,SystemResetWarning,0830.7,5.00,000.00,021.4,020.1,000.0,029.8,022.7,21.6,0000.0,0004.91,0008.02,0004.73
2024-01-26 12:23:00,SystemResetWarning,0830.8,4.99,000.00,021.4,020.1,000.0,029.7,022.7,21.5,0000.0,0004.91,0008.03,0004.73
2024-01-26 12:24:00,SystemResetWarning,0830.7,4.99,000.00,021.4,020.0,000.0,029.7,022.6,21.5,0000.0,0004.90,0008.05,0004.74
2024-01-26 12:25:00,SystemResetWarning,0830.8,5.00,000.00,021.3,020.0,000.0,029.7,022.6,21.4,0000.0,0004.93,0007.71,0004.79
2024-01-26 12:26:00,SystemResetWarning,0830.8,5.01,000.00,021.3,020.0,000.0,029.7,022.6,21.4,0000.0,0004.94,0007.35,0004.81
2024-01-26 12:27:00,SystemResetWarning,0830.8,5.00,000.00,021.3,020.0,000.0,029.7,022.6,21.3,0000.0,0004.94,0007.74,0004.82
2024-01-26 12:28:00,SystemResetWarning,0830.8,5.00,000.00,021.3,019.9,000.0,029.7,022.6,21.3,0000.0,0004.98,0007.79,0004.85
2024-01-26 12:29:00,SystemResetWarning,0830.8,5.00,000.00,021.3,019.9,000.0,029.7,022.6,21.3,0000.0,0005.01,0007.81,0004.88
2024-01-26 12:30:00,SystemResetWarning,0830.8,5.00,000.00,021.3,019.9,000.0,029.7,022.5,21.2,0000.0,0005.04,0007.84,0004.91
2024-01-26 12:31:00,SystemResetWarning,0830.8,5.00,000.00,021.3,019.9,000.0,029.7,022.5,21.2,0000.0,0005.10,0007.88,0004.97
2024-01-26 12:32:00,SystemResetWarning,0830.9,5.00,000.00,021.2,019.9,000.0,029.7,022.5,21.3,0000.0,0005.14,0007.95,0005.02
2024-01-26 12:33:00,SystemResetWarning,0830.8,4.99,000.00,021.2,019.9,000.0,029.6,022.5,21.4,0000.0,0005.15,0007.94,0005.04
2024-01-26 12:34:00,SystemResetWarning,0830.9,4.99,000.00,021.2,019.9,000.0,029.6,022.5,21.4,0000.0,0005.17,0007.95,0005.04
2024-01-26 12:35:00,SystemResetWarning,0830.9,5.00,000.00,021.2,019.9,000.0,029.6,022.5,21.4,0000.0,0005.21,0007.94,0005.08
2024-01-26 12:36:00,SystemResetWarning,0830.9,5.01,000.00,021.2,019.9,000.0,029.6,022.5,21.5,0000.0,0005.24,0007.99,0005.08
2024-01-26 12:37:00,SystemResetWarning,0830.9,5.00,000.00,021.2,019.9,000.0,029.6,022.5,21.5,0000.0,0005.29,0008.00,0005.13
2024-01-26 12:38:00,SystemResetWarning,0830.9,4.99,000.00,021.2,019.9,000.0,029.6,022.5,21.6,0000.0,0005.36,0007.80,0005.18
2024-01-26 12:39:00,SystemResetWarning,0830.9,5.00,000.00,021.2,019.9,000.0,029.6,022.5,21.6,0000.0,0005.32,0007.72,0005.16
2024-01-26 12:40:00,SystemResetWarning,0830.9,5.01,000.00,021.2,019.8,000.0,029.5,022.5,21.6,0000.0,0005.24,0007.63,0005.09
2024-01-26 12:41:00,SystemResetWarning,0830.9,5.01,000.00,021.2,019.8,000.0,029.5,022.5,21.6,0000.0,0005.15,0007.50,0005.02
2024-01-26 12:42:00,SystemResetWarning,0830.9,5.00,000.00,021.1,019.8,000.0,029.5,022.4,21.4,0000.0,0005.10,0007.46,0004.96
2024-01-26 12:43:00,SystemResetWarning,0830.9,5.00,000.00,021.1,019.8,000.0,029.5,022.4,21.4,0000.0,0005.05,0007.41,0004.90
2024-01-26 12:44:00,SystemResetWarning,0830.9,5.00,000.00,021.1,019.8,000.0,029.5,022.4,21.3,0000.0,0005.03,0007.41,0004.88
2024-01-26 12:45:00,SystemResetWarning,0830.9,5.00,000.00,021.1,019.8,000.0,029.5,022.4,21.2,0000.0,0004.98,0007.38,0004.82
2024-01-26 12:46:00,SystemResetWarning,0830.9,5.00,000.00,021.1,019.8,000.0,029.5,022.4,21.1,0000.0,0004.89,0007.34,0004.72
2024-01-26 12:47:00,SystemResetWarning,0830.9,5.00,000.00,021.1,019.8,000.0,029.5,022.4,21.1,0000.0,0004.83,0007.33,0004.64
2024-01-26 12:48:00,SystemResetWarning,0831.0,5.00,000.00,021.1,019.8,000.0,029.5,022.4,21.0,0000.0,0004.74,0007.34,0004.55
2024-01-26 12:49:00,SystemResetWarning,0831.0,5.00,000.00,021.1,019.7,000.0,029.4,022.4,20.9,0000.0,0004.60,0007.19,0004.43
2024-01-26 12:50:00,SystemResetWarning,0831.0,5.00,000.00,021.0,019.7,000.0,029.4,022.4,20.9,0000.0,0004.51,0007.02,0004.34
2024-01-26 12:51:00,SystemResetWarning,0831.0,4.99,000.00,021.0,019.7,000.0,029.4,022.3,20.9,0000.0,0004.47,0006.98,0004.29
2024-01-26 12:52:00,SystemResetWarning,0831.1,5.00,000.00,021.0,019.7,000.0,029.4,022.3,20.7,0000.0,0004.43,0006.94,0004.25
2024-01-26 12:53:00,SystemResetWarning,0831.1,5.00,000.00,021.0,019.7,000.0,029.4,022.3,20.7,0000.0,0004.39,0006.88,0004.21
2024-01-26 12:54:00,SystemResetWarning,0831.1,5.00,000.00,021.0,019.7,000.0,029.4,022.3,20.5,0000.0,0004.34,0006.80,0004.14
2024-01-26 12:55:00,SystemResetWarning,0831.2,5.00,000.00,021.0,019.7,000.0,029.4,022.3,20.5,0000.0,0004.25,0006.60,0004.06
2024-01-26 12:56:00,SystemResetWarning,0831.2,5.00,000.00,021.0,019.7,000.0,029.4,022.3,20.4,0000.0,0004.21,0006.45,0004.04
2024-01-26 12:57:00,SystemResetWarning,0831.2,4.99,000.00,021.0,019.7,000.0,029.4,022.3,20.5,0000.0,0004.21,0006.33,0004.06
2024-01-26 12:58:00,SystemResetWarning,0831.1,5.00,000.00,021.0,019.7,000.0,029.4,022.3,20.5,0000.0,0004.21,0006.25,0004.08
2024-01-26 12:59:00,SystemResetWarning,0831.2,5.00,000.00,021.0,019.7,000.0,029.4,022.3,20.5,0000.0,0004.23,0006.01,0004.11
